TimeEDT,TemperatureF,Dew PointF,Humidity,Sea Level PressureIn,VisibilityMPH,Wind Direction,Wind SpeedMPH,Gust SpeedMPH,PrecipitationIn,Events,Conditions,WindDirDegrees,DateUTC
12:54 AM,79.0,75.0,88,29.89,8.0,SW,5.8,-,N/A,,Clear,220,2013-06-13 04:54:00
1:54 AM,79.0,75.0,88,29.88,8.0,SW,3.5,-,N/A,,Clear,230,2013-06-13 05:54:00
2:54 AM,78.1,73.9,87,29.87,7.0,SSW,5.8,-,N/A,,Clear,210,2013-06-13 06:54:00
3:54 AM,78.1,73.9,87,29.86,8.0,SSW,5.8,-,N/A,,Clear,210,2013-06-13 07:54:00
4:54 AM,78.1,73.9,87,29.86,8.0,SW,5.8,-,N/A,,Clear,220,2013-06-13 08:54:00
5:54 AM,78.1,73.0,84,29.84,9.0,SSW,6.9,-,N/A,,Clear,210,2013-06-13 09:54:00
6:54 AM,79.0,73.9,84,29.84,9.0,SW,6.9,-,N/A,,Clear,220,2013-06-13 10:54:00
7:54 AM,82.0,73.9,76,29.83,10.0,SW,6.9,-,N/A,,Clear,220,2013-06-13 11:54:00
8:54 AM,87.1,75.0,67,29.81,10.0,SSW,10.4,-,N/A,,Clear,200,2013-06-13 12:54:00
9:54 AM,90.0,75.9,63,29.81,10.0,SSW,11.5,-,N/A,,Clear,210,2013-06-13 13:54:00
10:54 AM,93.0,75.9,57,29.79,10.0,SW,13.8,20.7,N/A,,Clear,230,2013-06-13 14:54:00
11:54 AM,96.1,73.9,49,29.77,10.0,SW,10.4,17.3,N/A,,Clear,220,2013-06-13 15:54:00
12:54 PM,96.1,75.0,51,29.74,10.0,SSW,16.1,20.7,N/A,,Clear,210,2013-06-13 16:54:00
1:54 PM,98.1,75.0,48,29.71,10.0,SSW,11.5,26.5,N/A,,Clear,200,2013-06-13 17:54:00
2:54 PM,97.0,75.0,49,29.68,10.0,South,16.1,26.5,N/A,,Clear,190,2013-06-13 18:54:00
3:54 PM,96.1,75.9,52,29.66,10.0,SSW,15.0,24.2,N/A,,Clear,210,2013-06-13 19:54:00
4:54 PM,95.0,75.9,54,29.64,10.0,SSW,16.1,23.0,N/A,,Clear,210,2013-06-13 20:54:00
5:54 PM,93.0,77.0,59,29.62,10.0,SSW,13.8,21.9,N/A,,Clear,210,2013-06-13 21:54:00
6:54 PM,91.9,77.0,62,29.64,10.0,SSW,12.7,-,N/A,,Clear,210,2013-06-13 22:54:00
7:54 PM,89.1,77.0,67,29.68,10.0,WNW,11.5,-,N/A,,Partly Cloudy,300,2013-06-13 23:54:00
8:03 PM,87.8,62.6,43,29.69,10.0,WNW,17.3,34.5,N/A,Thunderstorm,Mostly Cloudy,290,2013-06-14 00:03:00
8:14 PM,84.2,62.6,48,29.72,8.0,NW,12.7,24.2,0.01,Rain-Thunderstorm,Light Rain,310,2013-06-14 00:14:00
8:54 PM,73.9,66.0,76,29.70,10.0,SW,6.9,17.3,0.09,Rain,Light Rain,220,2013-06-14 00:54:00
9:01 PM,73.4,66.2,78,29.69,10.0,SW,4.6,-,0.00,Rain-Thunderstorm,Light Rain,230,2013-06-14 01:01:00
9:15 PM,73.4,66.2,78,29.69,10.0,SSW,8.1,-,0.00,Rain,Light Rain,200,2013-06-14 01:15:00
9:54 PM,72.0,66.9,84,29.72,10.0,SW,5.8,-,0.00,,Partly Cloudy,220,2013-06-14 01:54:00
10:54 PM,73.9,66.0,76,29.69,10.0,WSW,3.5,-,N/A,,Partly Cloudy,240,2013-06-14 02:54:00
11:22 PM,71.6,66.2,83,29.74,3.0,SW,9.2,-,0.08,Rain-Thunderstorm,Thunderstorms and Rain,220,2013-06-14 03:22:00
11:52 PM,71.6,68.0,88,29.74,10.0,SSW,5.8,-,0.12,Rain-Thunderstorm,Light Thunderstorms and Rain,200,2013-06-14 03:52:00
11:54 PM,72.0,68.0,87,29.75,10.0,SSW,6.9,-,0.12,Rain-Thunderstorm,Light Thunderstorms and Rain,200,2013-06-14 03:54:00